{"data":{"norad_id":81499,"intl_designator":"","name":"UNKNOWN","alt_names":[],"object_type":"UNKNOWN","status":"UNKNOWN","operator":null,"country":null,"launch_date":null,"launch_site_code":null,"launch_vehicle":null,"mission":null,"orbit_class":"UNKNOWN","rcs_meters":null,"size_class":null,"mass_kg":null,"dimensions":null,"purposes":[],"wikipedia_slug":null,"has_3d_model":false,"image_url":null,"decayed_at":null,"tle_current":{"epoch":"2026-09-18T04:34:56.884224Z","epoch_age_seconds":214261,"freshness":"STALE","line1":"1 81499U          26261.19093616  .00001541  00000+0  41853-3 0  9997","line2":"2 81499  74.0472  58.4934 0001514 104.8457 255.2870 14.48420095522869","mean_motion":14.48420095,"eccentricity":0.0001514,"inclination_deg":74.0472,"raan_deg":58.4934,"arg_perigee_deg":104.8457,"mean_anomaly_deg":255.287,"bstar":0.00041853,"rev_number":52286,"period_min":99.418670382366,"perigee_km":729.73704314121,"apogee_km":731.88963330362,"semimajor_km":7108.9503382224,"source":"CELESTRAK","updated_at":"2026-09-20T09:00:32.389968Z"}}}